Weather History for Point Pleasant, WV

Change the Weather History Date:

Wednesday, December 4, 2013

  Actual Average (KHTS) Record (KHTS)
Temperature  
Mean Temperature 54 °F 40 °F  
Max Temperature 68 °F 49 °F 74 °F (1982)
Min Temperature 39 °F 31 °F 12 °F (1908)
Degree Days  
Heating Degree Days 12 25  
Month to date heating degree days 98  
Since 1 July heating degree days 985  
Cooling Degree Days 0 0  
Month to date cooling degree days 0  
Year to date cooling degree days 1134  
Growing Degree Days 4 (Base 50)    
Moisture  
Dew Point 46 °F    
Average Humidity 75    
Maximum Humidity 100    
Minimum Humidity 52    
Precipitation  
Precipitation 0.00 in 0.11 in 1.05 in (1993)
Month to date precipitation 0.44  
Year to date precipitation 39.72  
Snow  
Snow 0.00 in - - ()
Month to date snowfall  
Since 1 September snowfall  
Snow Depth -    
Sea Level Pressure  
Sea Level Pressure 29.89 in    
Wind  
Wind Speed 1 mph (SSE)    
Max Wind Speed 7 mph    
Max Gust Speed -    
Visibility 9 miles    
Events      
T = Trace of Precipitation, MM = Missing Value Source: NWS Daily Summary

Daily Weather History Graph

Daily Weather History Graph

Search for Another Location

Airport:

Trip Planner

Search our weather history database for the weather conditions in past years. The results will help you decide how hot, cold, wet, or windy it might be!

Date:

Astronomy

Dec. 04, 2013 Rise Set
Actual Time 7:31 AM EST 5:06 PM EST
Civil Twilight 7:01 AM EST 5:35 PM EST
Nautical Twilight 6:28 AM EST 6:09 PM EST
Astronomical Twilight 5:56 AM EST 6:41 PM EST
Moon 8:58 AM EST (12/4) 7:14 PM EST (12/4)
Length of Visible Light 10h 34m
Length of Day
9h 35m
Waxing Crescent, 4% of the Moon is Illuminated
Dec 4
Waxing Crescent
Dec 9
First Quarter
Dec 17
Full
Dec 25
Last Quarter
Jan 1
New

Hourly Weather History & Observations

Time (EST) Temp. Dew Point Humidity Pressure Visibility Wind Dir Wind Speed Gust Speed Precip Events Conditions
12:15 AM 46.4 °F 42.8 °F 87% 29.90 in 10.0 mi Calm Calm - N/A   Overcast
12:35 AM 44.6 °F 42.8 °F 93% 29.91 in 10.0 mi Calm Calm - N/A   Overcast
12:55 AM 44.6 °F 41.0 °F 87% 29.90 in 10.0 mi Calm Calm - N/A   Overcast
1:15 AM 42.8 °F 41.0 °F 93% 29.91 in 10.0 mi Calm Calm - N/A   Mostly Cloudy
1:35 AM 42.8 °F 39.2 °F 87% 29.91 in 10.0 mi Calm Calm - N/A   Scattered Clouds
1:55 AM 41.0 °F 39.2 °F 93% 29.91 in 10.0 mi Calm Calm - N/A   Clear
2:15 AM 41.0 °F 39.2 °F 93% 29.91 in 7.0 mi Calm Calm - N/A   Clear
2:35 AM 39.2 °F 37.4 °F 93% 29.91 in 7.0 mi Calm Calm - N/A   Scattered Clouds
2:55 AM 41.0 °F 39.2 °F 93% 29.91 in 10.0 mi Calm Calm - N/A   Mostly Cloudy
3:15 AM 41.0 °F 39.2 °F 93% 29.90 in 10.0 mi Calm Calm - N/A   Mostly Cloudy
3:35 AM 39.2 °F 37.4 °F 93% 29.90 in 7.0 mi Calm Calm - N/A   Mostly Cloudy
3:55 AM 39.2 °F 37.4 °F 93% 29.90 in 7.0 mi Calm Calm - N/A   Scattered Clouds
4:15 AM 39.2 °F 37.4 °F 93% 29.90 in 7.0 mi Calm Calm - N/A   Mostly Cloudy
4:35 AM 41.0 °F 39.2 °F 93% 29.91 in 7.0 mi Calm Calm - N/A   Overcast
4:55 AM 41.0 °F 37.4 °F 87% 29.91 in 10.0 mi Calm Calm - N/A   Scattered Clouds
5:15 AM 41.0 °F 39.2 °F 93% 29.92 in 10.0 mi Calm Calm - N/A   Mostly Cloudy
5:35 AM 41.0 °F 41.0 °F 100% 29.93 in 7.0 mi Calm Calm - N/A   Overcast
5:55 AM 41.0 °F 41.0 °F 100% 29.93 in 7.0 mi Calm Calm - N/A   Overcast
6:15 AM 42.8 °F 41.0 °F 93% 29.94 in 7.0 mi Calm Calm - N/A   Overcast
6:35 AM 42.8 °F 41.0 °F 93% 29.95 in 10.0 mi Calm Calm - N/A   Overcast
6:55 AM 42.8 °F 41.0 °F 93% 29.94 in 10.0 mi Calm Calm - N/A   Overcast
7:15 AM 41.0 °F 39.2 °F 93% 29.94 in 10.0 mi Calm Calm - N/A   Mostly Cloudy
7:35 AM 41.0 °F 39.2 °F 93% 29.94 in 7.0 mi Calm Calm - N/A   Scattered Clouds
7:55 AM 41.0 °F 37.4 °F 87% 29.94 in 5.0 mi Calm Calm - N/A   Clear
8:15 AM 41.0 °F 39.2 °F 93% 29.94 in 7.0 mi Calm Calm - N/A   Clear
8:35 AM 42.8 °F 42.8 °F 100% 29.95 in 5.0 mi Calm Calm - N/A   Clear
8:55 AM 44.6 °F 42.8 °F 93% 29.95 in 7.0 mi Calm Calm - N/A   Clear
9:15 AM 48.2 °F 42.8 °F 82% 29.96 in 10.0 mi Calm Calm - N/A   Clear
9:35 AM 51.8 °F 44.6 °F 76% 29.97 in 10.0 mi Calm Calm - N/A   Scattered Clouds
9:55 AM 55.4 °F 46.4 °F 72% 29.97 in 10.0 mi Calm Calm - N/A   Scattered Clouds
10:15 AM 59.0 °F 46.4 °F 63% 29.97 in 10.0 mi Calm Calm - N/A   Clear
10:35 AM 59.0 °F 46.4 °F 63% 29.97 in 10.0 mi Calm Calm - N/A   Clear
10:55 AM 60.8 °F 46.4 °F 59% 29.96 in 10.0 mi South 4.6 mph - N/A   Scattered Clouds
11:15 AM 62.6 °F 46.4 °F 55% 29.95 in 10.0 mi South 3.5 mph - N/A   Scattered Clouds
11:35 AM 64.4 °F 48.2 °F 56% 29.94 in 10.0 mi SE 3.5 mph - N/A   Scattered Clouds
11:55 AM 64.4 °F 48.2 °F 56% 29.92 in 10.0 mi SSE 5.8 mph - N/A   Scattered Clouds
12:15 PM 66.2 °F 50.0 °F 56% 29.91 in 10.0 mi SSE 6.9 mph - N/A   Clear
12:35 PM 68.0 °F 50.0 °F 52% 29.90 in 10.0 mi South 4.6 mph - N/A   Clear
12:55 PM 68.0 °F 50.0 °F 52% 29.89 in 10.0 mi South 4.6 mph - N/A   Clear
1:15 PM 64.4 °F 51.8 °F 64% 29.89 in 10.0 mi South 5.8 mph - N/A   Mostly Cloudy
1:35 PM 66.2 °F 51.8 °F 60% 29.87 in 10.0 mi SE 4.6 mph - N/A   Overcast
1:55 PM 66.2 °F 51.8 °F 60% 29.86 in 10.0 mi SE 3.5 mph - N/A   Overcast
2:15 PM 66.2 °F 51.8 °F 60% 29.86 in 10.0 mi SE 3.5 mph - N/A   Overcast
2:35 PM 66.2 °F 51.8 °F 60% 29.85 in 10.0 mi South 4.6 mph - N/A   Overcast
2:55 PM 66.2 °F 51.8 °F 60% 29.84 in 10.0 mi SSE 3.5 mph - N/A   Overcast
3:15 PM 66.2 °F 51.8 °F 60% 29.84 in 10.0 mi SE 3.5 mph - N/A   Overcast
3:35 PM 66.2 °F 51.8 °F 60% 29.85 in 10.0 mi South 3.5 mph - N/A   Overcast
3:55 PM 66.2 °F 51.8 °F 60% 29.85 in 10.0 mi SE 3.5 mph - N/A   Mostly Cloudy
4:15 PM 66.2 °F 51.8 °F 60% 29.84 in 10.0 mi ESE 3.5 mph - N/A   Mostly Cloudy
4:35 PM 64.4 °F 51.8 °F 64% 29.84 in 10.0 mi Calm Calm - N/A   Mostly Cloudy
4:55 PM 62.6 °F 51.8 °F 68% 29.84 in 10.0 mi Calm Calm - N/A   Mostly Cloudy
5:15 PM 62.6 °F 50.0 °F 63% 29.84 in 10.0 mi Calm Calm - N/A   Scattered Clouds
5:35 PM 59.0 °F 50.0 °F 72% 29.84 in 10.0 mi Calm Calm - N/A   Scattered Clouds
5:55 PM 59.0 °F 50.0 °F 72% 29.83 in 10.0 mi East 4.6 mph - N/A   Scattered Clouds
6:15 PM 55.4 °F 50.0 °F 82% 29.83 in 10.0 mi East 4.6 mph - N/A   Scattered Clouds
6:35 PM 57.2 °F 50.0 °F 77% 29.84 in 10.0 mi ESE 3.5 mph - N/A   Scattered Clouds
6:55 PM 55.4 °F 50.0 °F 82% 29.84 in 10.0 mi Calm Calm - N/A   Scattered Clouds
7:15 PM 60.8 °F 50.0 °F 68% 29.84 in 10.0 mi Calm Calm - N/A   Clear
7:35 PM 62.6 °F 50.0 °F 63% 29.84 in 10.0 mi SE 3.5 mph - N/A   Clear
7:55 PM 62.6 °F 50.0 °F 63% 29.84 in 10.0 mi Calm Calm - N/A   Clear
8:15 PM 62.6 °F 50.0 °F 63% 29.85 in 10.0 mi Calm Calm - N/A   Clear
8:35 PM 60.8 °F 50.0 °F 68% 29.85 in 10.0 mi Calm Calm - N/A   Clear
8:55 PM 60.8 °F 50.0 °F 68% 29.85 in 10.0 mi Calm Calm - N/A   Clear
9:15 PM 60.8 °F 50.0 °F 68% 29.86 in 10.0 mi Calm Calm - N/A   Clear
9:35 PM 59.0 °F 50.0 °F 72% 29.86 in 10.0 mi Calm Calm - N/A   Clear
9:55 PM 60.8 °F 50.0 °F 68% 29.86 in 10.0 mi Calm Calm - N/A   Clear
10:15 PM 60.8 °F 50.0 °F 68% 29.86 in 10.0 mi SSE 3.5 mph - N/A   Clear
10:35 PM 62.6 °F 50.0 °F 63% 29.85 in 10.0 mi Calm Calm - N/A   Clear
10:55 PM 62.6 °F 50.0 °F 63% 29.86 in 10.0 mi Calm Calm - N/A   Clear
11:15 PM 60.8 °F 50.0 °F 68% 29.86 in 10.0 mi Calm Calm - N/A   Clear
11:35 PM 60.8 °F 50.0 °F 68% 29.86 in 10.0 mi Calm Calm - N/A   Clear
11:55 PM 62.6 °F 51.8 °F 68% 29.87 in 10.0 mi SSW 3.5 mph - N/A   Clear